Погода Тарко-Сале

Хотите узнать прогноз погоды Тарко-Сале? Тогда Вам сюда: Погода Тарко-Сале

Поиск расширенной информации на нашем сайте:

Полезная информация:

Новости сайта



02.01.2020
Опубликован Долгосрочный прогноз погоды по городам России и ближнего зарубежья на январь 2020 года.
Карты: Прогноз на январь и февраль 2020 года, Сравнение прогнозируемой аномалии приземной температуры воздуха на январь 2020 года по разным моделям.




Погода Тарко-Сале - сегодня

Время (UTC), дата Ветер
(°,м/с) 
Видим.   Явления Облачность Т
(°С)
Тd
(°С)
f(%) Тe
(°С)
Pmin
(гПа)
dP
(гПа)
Po
(мм)
O2
(г/м3)
Тmin Tmax R s Состояние
почвы
03 13.01.21 280 (З) 2000 м  ливневой снег [диам. изморози 4 мм]  10/10 180 м кучево-дожд. 
[Cb cap]
-10 -10.8 94 -13  1017.2  -1.1  760  319  -12.8    0.7  47  равномерный
сухой снег
100% 
15 13.01.21 270 (З) 4000 м  слаб. ливневой снег  10/10 330 м кучево-дожд. 
[Cb cap]
-7.9 -9 92 -11  1014.6  -0.7  758  316    -7.9  0.6     
00 14.01.21 270 (З) 3{11}  4000 м  слаб. ливневой снег [диам. изморози 3 мм]  10/10 570 м кучево-дожд. 
[Cb cap]
-8.6 -10.3 87 -11  1016.2  0.7  760  317           
03 14.01.21 280 (З) 4-10{11}  4000 м  слаб. ливневой снег [диам. изморози 2 мм]  10/8 360 м кучево-дожд., средняя 
[Cb cap|Ac trans]
-8.9 -10.9 85 -13  1016.3  0.1  760  317  -8.9    0.5  48  равномерный
сухой снег
100% 
15 14.01.21 250 (З) 4000 м  слаб. ливневой снег  10/10 330 м кучево-дожд. 
[Cb cap]
-13.8 -15.7 86 -16  1024.1  1.7  765  326    -8.9  0.5     
03 15.01.21 220 (ЮЗ) 10 км  в посл. час снег  10/0 верхняя 
[Ci fib]
-21.2 -23.5 82 -22  1028.1  0.9  768  337  -21.2    0.4  48  равномерный
сухой снег
100% 
09 15.01.21 170 (Ю) 10 км    10/0 средняя, верхняя 
[Ac cast|Ci fib]
-23 -25.8 78 -23  1028.3  0.2  768  340           
12 15.01.21 140 (ЮВ) 10 км    10/0 средняя 
[Ac cast]
-23.1 -25.9 78 -26  1027.6  -0.7  768  340           
03 16.01.21 110 (В) 4000 м  слаб. снег  10/10 240 м 
[Sc]
-17.4 -19.4 84 -20  1014.7  -2.7  758  328  -22.8    48  равномерный
сухой снег
100% 
09 16.01.21 080 (В) 10 км  {снег}  6/0 верхняя 
[Ci fib]
-19.1 -21 85 -22  1014.2  0.3  758  330           
12 16.01.21 080 (В) 10 км  ледяные иглы{снег}  ясно 
-21.6 -23.6 84 -22  1014.1  -0.1  758  333           
15 16.01.21 090 (В) 10 км  ледяные иглы{снег}  10/0 верхняя 
[Cs]
-21.7 -23.7 84 -25  1013.4  -0.7  757  333    -17.2     
03 17.01.21 070 (В) 4000 м  слаб. снег  10/8 150 м средняя 
[Frnb|As op]
-21.8 -24.1 82 -26  1002.9  -4.1  750  330  -22.5    0.9  48  равномерный
сухой снег
100% 
15 17.01.21 060 (СВ) 4000 м  слаб. ливневой снег  10/10 300 м кучево-дожд. 
[Cb cap]
-21.4 -23.6 82 -26  989.1  -2.2  739  325    -20.8     
18 17.01.21 040 (СВ) 10 км  {ливн. осадки}  10/0 верхняя 
[Cs]
-22.2 -24.4 82 -23  988  -1.1  738  326           
21 17.01.21 180 (Ю) 10 км  {ливн. осадки, снег}  10/0 верхняя 
[Cs]
-24.1 -26.4 81 -27  988.7  0.7  739  328           
00 18.01.21 180 (Ю) 10 км  {снег}  ясно 
-27.2 -30 77 -28  989.4  0.7  739  333           
03 18.01.21 190 (Ю) 10 км  [диам. изморози 1 мм]  ясно 
-30.1 -33.1 75 -34  990.4  0.9  740  337  -30.1      50  равномерный
сухой снег
100% 
06 18.01.21 210 (ЮЗ) 10 км  [диам. изморози 1 мм]  ясно 
-32.5 -35.9 72 -33  992.2  1.8  741  340  -32.5         
09 18.01.21 220 (ЮЗ) 10 км  [диам. изморози 1 мм]  ясно 
-31.8 -35.1 72 -33    2.1  743  341           
12 18.01.21 210 (ЮЗ) 10 км  [диам. изморози 1 мм]  ясно 
-33.4 -36.9 71 -34  996.4  2.1  745  344           
18 18.01.21 180 (Ю) 10 км  [диам. изморози 2 мм]  ясно 
-34.5 -38.2 69 -35  999.2  1.6  747  346           
21 18.01.21 220 (ЮЗ) 10 км  [диам. изморози 2 мм]  ясно 
-35.4 -39.2 68 -36  1001.3  748  348           
00 19.01.21 250 (З) 10 км  [диам. изморози 3 мм]  ясно 
-36 -39.8 68 -37  1003.2  750  350           
03 19.01.21 240 (ЮЗ) 2000 м  дым [диам. изморози 4 мм]  3/0 верхняя 
[Ci fib]
-36.7 -40.7 66 -38  1005.1  1.9  751  352  -36.7      50  равномерный
сухой снег
100% 
Время (UTC), дата Ветер
(°,м/с) 
Видим.   Явления Облачность Т
(°С)
Тd
(°С)
f(%) Тe
(°С)
Pmin
(гПа)
dP
(гПа)
Po
(мм)
O2
(г/м3)
Тmin Tmax R s Состояние
почвы

Для получения пояснительной информации подведите курсор к названию столбца.

ПОГОДА Тарко-Сале - архив

Всё, что Вы хотите узнать о погоде Тарко-Сале - удобно и подробно!

Выберите нужную дату (начиная с 1 января 2019* года) и нажмите кнопку "Найти".
Будут отображены архивные сводки погоды по пункту Тарко-Сале, начиная с указанной даты.


Отображать данные в формате CSV (для использования в таблицах Excel)


Внимание! Наш архив погоды предназначен исключительно для личного некоммерческого использования в познавательных целях. Если Вам необходимы официальные справки о состоянии погоды (для производственных, юридических, коммерческих и т.п. целей), обращайтесь в органы Росгидромета.

*Примечание: данная дата относится к архиву по метеостанциям СССР (Россия, СНГ, Балтия).
Архив по метеостанциям Зарубежной Европы и Азии (кроме Китая) хранится 10 дней, по другим регионам земного шара (Китай, Африка, Америка, Австралия, Океания) - 1 день.

Тарко-Сале - район местоположения метеостанции


Название, широта, долгота, высота метеостанции:
Тарко-Сале 64.9°ш. 77.8°д. 27 м над ур. моря [Российская Федерация]

Дополнительная информация

В oтличие oт бoльшинства пoгoдных сайтoв мы публикуем пoдрoбную метеoинфoрмацию в детальнoм прoфессиoнальнoм фoрмате.

Характеристики температуры и влажнoсти вoздуха измеряются на высoте 2 м в тени вдали oт зданий и деревьев.
Скoрoсть ветра измеряется на высoте 10 м (на урoвне рoста челoвека скoрoсть ветра ниже в 1.5-2 раза). Если метеoстанция нахoдится в гoрoде или в лесу, тo скoрoсть ветра занижена на 2-4 м/с пo сравнению с oткрытым местoм. Скoрoсть ветра над акватoриями крупных рек и oзёр, а также на вершинах хoлмoв на 2-5 м/с выше, чем в oбычных услoвиях.
Атмoсфернoе давление в разных тoчках местнoсти мoжет значительнo oтличаться oт давления на метеoстанции, в зависимoсти oт услoвий рельефа (при пoдъёме на 10 м давление пoнижается примернo на 1 мм рт.ст.).